Location: Hurecourt
(47.9030°N, 6.0653°E)
Time: 21:08:35
(UTC+00:00)

SL-16 R/B - Pass Details

Date: 14 July 2020
Orbit: 843 x 846 km, 71.0° (Epoch: 14 August)

Event Time Altitude Azimuth Distance (km) Brightness Sun altitude
Rises 02:02:01 0° 336° (NNW) 3,417 5.8 -13.7°
Reaches altitude 10° 02:04:44 10° 346° (NNW) 2,479 5.2 -13.4°
Maximum altitude 02:09:50 33° 50° (NE) 1,398 4.1 -12.9°
Drops below altitude 10° 02:14:54 10° 113° (ESE) 2,467 4.8 -12.5°
Sets 02:17:36 0° 123° (ESE) 3,398 5.4 -12.2°
